Гаргждай

Литва     55°42′41″N   21°23′26″E
темп.,
°C
ветер,
м/с
пор.,
м/с
влажн.,
%
обл.,
%
осадки,
мм/ч
давл.,
гПа
погр.,
м
18 мая, вт
вт1800:00+10св348174 0.0 100552
03:00+9всв3585100 0.0 100577
06:00+9св2292100 0.0 100529
09:00+15св2277100 0.0 1005337
12:00+18ссв3359100 0.1 10051426
15:00+19с335399 0.4 10051894
18:00+17ссз446712 0.6 1005469
21:00+13с37845 0.9 1006166
19 мая, ср
ср1900:00+9ссз229320 0.0 100621
03:00+8ссз239371 0.0 100643
06:00+7ссз2491100 0.0 100780
09:00+12зсз3574100 0.0 1007395
12:00+15зсз566374 0.0 1007903
15:00+15зсз576284 0.0 1008934
18:00+14зсз586981 0.0 1009720
21:00+10сз38885 0.0 1010299
20 мая, чт
чт2000:00+6зсз239557 0.0 101254
03:00+6зюз229274 0.0 101219
06:00+6зюз22965 0.0 101218
09:00+12зсз367384 0.0 1012365
12:00+15сз675787 0.0 1013972
15:00+14зсз785684 0.0 10141053
18:00+12зсз686817 0.0 1014750
21:00+8з410851 0.0 1014462
21 мая, пт
пт2100:00+7з513911 0.0 1014466
03:00+7з411920 0.0 1014363
06:00+6з410910 0.0 1014433
09:00+10з710675 0.0 10141272
12:00+11з710605 0.0 10151306
15:00+12зюз69646 0.0 10151153
18:00+12зюз586542 0.0 1015734
21:00+10ююв358161 0.0 1013108
22 мая, сб
сб2200:00+10ююв41287100 0.2 1013332
03:00+10ю51586100 0.4 1012458
06:00+10ююв51478100 0.1 1010454
09:00+13ююв71570100 0.1 1009643
12:00+16ю91567100 0.0 10071305
15:00+12ююз81593100 1.7 10081045
18:00+14ююз61088100 1.0 1008951
21:00+10юз1196100 1.7 100927